Home   Weather   Kemerovo   Past weeks

Flag for Russia Past Weather in Kemerovo, Russia — Yesterday and Last 2 Weeks

Now
39 °F

Passing clouds.


Feels Like: 35 °F
Forecast: 40 / 49 °F
Wind: 6 mph from Northwest

Location: Kemerovo

Current Time: Apr 30, 2017 at 4:45:59 am

Latest Report: Apr 30, 2017 at 4:00 am


Visibility: N/A

Pressure: 30.01 "Hg

Humidity: 93%

Dew Point: 37 °F

Location of KemerovoLocation

Past Weather in Kemerovo — Graph

°F

Kemerovo Temperature Yesterday

Maximum temperature yesterday: 64 °F (at 2:30 pm)
Minimum temperature yesterday: 43 °F (at 5:30 am)
Average temperature yesterday: 52 °F

High & Low Weather Summary for the Past Weeks

 TemperatureHumidityPressure
High82 °F (Apr 27, 4:30 pm)100% (Apr 16, 8:00 pm)30.39 "Hg (Apr 16, 8:00 pm)
Low28 °F (Apr 19, 4:00 am)13% (Apr 22, 3:00 pm)29.53 "Hg (Apr 17, 5:00 am)
Average46 °F63%30.00 "Hg
* Reported Apr 15 3:00 am — Apr 30 3:30 am, Kemerovo, Weather by CustomWeather, © 2017

Note: Actual official high and low records may vary slightly from our data, if they occured in-between our weather recording intervals... More about our weather records

Advertising

Kemerovo Weather History for the Previous 24 Hours

Scroll right to see more
 ConditionsComfort  
Time TempWeatherWind HumidityBarometerVisibility
3:30 am
Sun, Apr 30
39 °FSprinkles. Overcast.6 mph93%30.04 "HgN/A
2:30 am39 °FSprinkles. Overcast.6 mph93%30.04 "HgN/A
2:00 am41 °FSprinkles. Overcast.8 mph81%30.04 "HgN/A
1:30 am41 °FSprinkles. Overcast.8 mph81%30.04 "HgN/A
1:00 am41 °FSprinkles. Overcast.10 mph81%30.01 "HgN/A
12:30 am43 °FOvercast.10 mph76%30.01 "HgN/A
12:00 am45 °FPassing clouds.10 mph71%30.01 "HgN/A
11:30 pm
Sat, Apr 29
45 °FPassing clouds.6 mph71%30.01 "HgN/A
11:00 pm45 °FPassing clouds.13 mph71%30.01 "HgN/A
10:30 pm46 °FPassing clouds.17 mph71%29.98 "HgN/A
10:00 pm46 °FClear.17 mph71%29.98 "Hg10 mi
9:30 pm50 °FSunny.22 mph67%29.95 "Hg10 mi
9:00 pm59 °FSunny.22 mph34%29.92 "Hg10 mi
8:30 pm59 °FSunny.20 mph36%29.92 "Hg10 mi
7:30 pm61 °FSunny.22 mph34%29.92 "Hg10 mi
7:00 pm61 °FSunny.24 mph34%29.92 "Hg10 mi
6:30 pm61 °FSunny.24 mph31%29.92 "Hg10 mi
5:30 pm64 °FSunny.22 mph28%29.92 "Hg10 mi
5:00 pm64 °FSunny.24 mph26%29.92 "Hg10 mi
4:30 pm64 °FSunny.22 mph26%29.92 "Hg10 mi
4:00 pm64 °FSunny.24 mph24%29.95 "Hg10 mi
3:30 pm64 °FSunny.24 mph24%29.95 "Hg10 mi
2:30 pm64 °FSunny.22 mph28%29.98 "Hg10 mi
2:00 pm63 °FSunny.17 mph27%29.98 "Hg10 mi
1:30 pm63 °FSunny.17 mph25%30.01 "Hg10 mi
1:00 pm61 °FSunny.17 mph29%30.01 "Hg10 mi
12:30 pm59 °FSunny.15 mph34%30.04 "Hg10 mi
12:00 pm59 °FSunny.17 mph34%30.04 "Hg10 mi
11:30 am57 °FSunny.17 mph39%30.04 "Hg10 mi
11:00 am55 °FSunny.15 mph47%30.07 "Hg10 mi
10:30 am54 °FSunny.15 mph51%30.07 "Hg10 mi
10:00 am52 °FSunny.15 mph58%30.07 "Hg10 mi
9:30 am50 °FSunny.15 mph62%30.07 "Hg10 mi
9:00 am48 °FSunny.13 mph71%30.07 "Hg10 mi
8:30 am46 °FSunny.8 mph76%30.07 "Hg10 mi
8:00 am45 °FPassing clouds.10 mph81%30.07 "HgN/A
7:30 am45 °FPassing clouds.10 mph81%30.07 "HgN/A
7:00 am43 °FPassing clouds.8 mph81%30.07 "HgN/A
6:30 am43 °FPassing clouds.8 mph81%30.07 "HgN/A
6:00 am43 °FPassing clouds.6 mph87%30.07 "HgN/A
5:30 am43 °FPassing clouds.8 mph87%30.07 "HgN/A
5:00 am45 °FOvercast.13 mph87%30.07 "HgN/A
4:30 am46 °FOvercast.10 mph87%30.07 "HgN/A
4:00 am46 °FOvercast.13 mph87%30.04 "HgN/A
Weather by CustomWeather, © 2017

See weather overviewHow to use our weather pages